Location: Newark
(7.0858°N, 171.3717°E)
Time: 07:26:45
(UTC+00:00)

Courier 1B - Pass Details

Date: 28 November 2020
Orbit: 962 x 1209 km, 28.3° (Epoch: 20 January)

Event Time Altitude Azimuth Distance (km) Brightness Sun altitude
Rises 08:53:16 0° 258° (WSW) 3,637 11.4 -37.6°
Reaches altitude 10° 08:56:02 10° 265° (W) 2,703 10.5 -38.2°
Enters shadow 08:59:36 30° 288° (WNW) 1,681 9.0 -39.0°
Maximum altitude 09:02:09 42° 335° (NNW) 1,382 - -39.6°
Drops below altitude 10° 09:08:32 10° 44° (NE) 2,821 - -41.1°
Sets 09:11:29 0° 51° (NE) 3,813 - -41.7°
